EW2785 Weather Reports


Display with metric or nautical units.
time (UTC)temp
F
wind
direction
speed
MPH
gust
MPH
rain 1hr
in
rain 24hr
in
rain mn
in
humidity
%
barometer
mb
20260505000006 65 188 0.0 1.0 0.00 0.00 0.00 43 1005.5
20260504234503 66 186 0.0 2.0 0.00 0.00 0.00 43 1005.3
20260504233002 67 190 0.0 4.0 0.00 0.00 0.00 41 1005.2
20260504231502 67 188 0.0 8.0 0.00 0.00 0.00 40 1004.9
20260504230002 68 180 3.0 13.0 0.00 0.00 0.00 37 1004.7
20260504224501 68 190 4.0 11.0 0.00 0.00 0.00 36 1004.6
20260504223134 68 176 1.0 12.0 0.00 0.00 0.00 37 1004.5
20260504221559 68 200 1.0 10.0 0.00 0.00 0.00 36 1004.5
20260504220059 69 192 3.0 8.0 0.00 0.00 0.00 37 1004.6
20260504214559 69 208 2.0 10.0 0.00 0.00 0.00 37 1004.6
20260504213105 69 192 2.0 12.0 0.00 0.00 0.00 37 1004.5
20260504211600 70 170 5.0 12.0 0.00 0.00 0.00 37 1004.5
20260504210059 71 183 4.0 12.0 0.00 0.00 0.00 36 1004.6
20260504204555 70 180 2.0 16.0 0.00 0.00 0.00 38 1004.8
20260504203106 69 177 7.0 22.0 0.00 0.00 0.00 38 1004.9
20260504201556 68 210 4.0 14.0 0.00 0.00 0.00 40 1005.1
20260504200054 69 156 4.0 15.0 0.00 0.00 0.00 38 1005.1
20260504194550 70 148 6.0 16.0 0.00 0.00 0.00 38 1005.6
20260504193048 70 198 4.0 15.0 0.00 0.00 0.00 39 1005.4
20260504191554 69 166 3.0 14.0 0.00 0.00 0.00 43 1005.6
20260504190046 68 157 4.0 21.0 0.00 0.00 0.00 41 1005.7
20260504184538 67 178 4.0 14.0 0.00 0.00 0.00 43 1005.8
20260504183037 66 209 3.0 15.0 0.00 0.00 0.00 43 1005.9
20260504181542 66 133 1.0 11.0 0.00 0.00 0.00 44 1006.1
20260504180032 65 146 4.0 13.0 0.00 0.00 0.00 46 1006.0
20260504174530 64 136 3.0 15.0 0.00 0.00 0.00 45 1006.1
20260504173026 63 156 3.0 20.0 0.00 0.00 0.00 47 1006.3
20260504171524 62 197 5.0 16.0 0.00 0.00 0.00 45 1006.6
20260504081514 46 94 0.0 2.0 0.00 0.00 0.00 79 1008.7
20260504044548 38 314 0.0 2.0 0.00 0.00 0.00 83 1009.4
20260504043042 37 314 0.0 0.0 0.00 0.00 0.00 83 1009.6
20260504041539 37 314 0.0 1.0 0.00 0.00 0.00 83 1009.3
20260504040049 37 313 0.0 1.0 0.00 0.00 0.00 83 1009.4
20260504034550 36 284 0.0 1.0 0.00 0.00 0.00 84 1009.4
20260504033037 36 284 0.0 0.0 0.00 0.00 0.00 83 1009.4
20260504031536 35 284 0.0 0.0 0.00 0.00 0.00 83 1009.5
20260504030039 35 284 0.0 0.0 0.00 0.00 0.00 82 1009.4
20260504024536 35 284 0.0 1.0 0.00 0.00 0.00 81 1009.4
20260504023035 35 284 0.0 0.0 0.00 0.00 0.00 78 1009.5
20260504021534 36 284 0.0 1.0 0.00 0.00 0.00 76 1009.5
20260504020035 37 284 0.0 0.0 0.00 0.00 0.00 74 1009.6
20260504014535 37 284 0.0 0.0 0.00 0.00 0.00 72 1009.6
20260504013045 39 284 0.0 1.0 0.00 0.00 0.00 70 1009.5
20260504011533 40 284 0.0 1.0 0.00 0.00 0.00 68 1009.4
20260504010032 41 284 0.0 0.0 0.00 0.00 0.00 64 1009.1
20260504004532 43 284 0.0 0.0 0.00 0.00 0.00 61 1008.8
20260504003033 45 284 0.0 0.0 0.00 0.00 0.00 56 1008.7
20260504001531 46 284 0.0 0.0 0.00 0.00 0.00 54 1008.5